ONEWEB-0344 (49210 NORAD) Tracking and Keplerian Element Data

This shows tracking and keplerian element data for the satellite.

Feedback or suggestion? Click here.




ElementValue
Catalog49210
NameONEWEB-0344
Epoch Orbit360
Epoch Day287.91667824
Epoch Year2021
RAAN317.5724
Inclination87.2067
Eccentricity0.0020218
Argument of Perigee181.241
Mean Anonmoly335.2739
Mean Motion14.90178594
Decay Rate-0.01300508
L11 49210U 21083AA 21287.91667824 -.01300508 00000-0 -14526+0 0 9999
L22 49210 87.2067 317.5724 0020218 181.2410 335.2739 14.90178594 3606

Live tracking and technical data element details for ONEWEB-0344 (NORAD 49210). ONEWEB-0344 can be tracked NOW for your location showing map with azimuth and elevation plus other details from your city location.

Track the satellite on the map from your city or location and see movement details for azimuth, elevation, latitude, longitude, range, height, and movement on the map or in text.







IsCatalogInMostPopularTable: catalog: 49210, numindb: 8
Update: records affected: 1



GetName: 49210 ONEWEB-0344

Hit Count: updated at: Tue, 19 Oct 2021 08:24:18 GMT